Location: Unspecified
(41.1637°N, 0.0000°E)
Time: 23:09:52
(UTC+00:00)

Tiangong 2 - Visible Passes

Search period start: 20 June 2019 00:00
Search period end: 30 June 2019 00:00
Orbit: 376 x 389 km, 42.8° (Epoch: 20 June)

Date Brightness Start Highest point End Pass type
(mag) Time Alt. Az. Time Alt. Az. Time Alt. Az.
24 Jun 3.1 03:37:06 10° SSW 03:39:23 18° SSE 03:41:41 10° E visible
25 Jun 3.7 02:39:17 10° SE 02:39:25 10° SE 02:39:58 10° SE visible
26 Jun 2.2 03:13:51 19° SSW 03:15:28 30° SSE 03:18:17 10° E visible
27 Jun 3.3 02:16:12 16° SE 02:16:12 16° SE 02:17:38 10° ESE visible
27 Jun 1.1 03:48:38 10° WSW 03:51:46 76° SSE 03:54:56 10° ENE visible
28 Jun 1.4 02:50:41 35° SSW 02:51:36 48° SSE 02:54:40 10° E visible
29 Jun 3.2 01:52:59 19° ESE 01:52:59 19° ESE 01:54:15 10° E visible
29 Jun 1.1 03:25:08 12° W 03:28:00 80° N 03:31:09 10° ENE visible
